Location: Napa Junction
(38.1874°N, 122.2508°W)
Time: 12:08:13
(UTC+00:00)

H-2A R/B - Pass Details

Date: 08 September 2024
Orbit: 731 x 831 km, 98.2° (Epoch: 11 October)

Event Time Altitude Azimuth Distance (km) Brightness Sun altitude
Rises 12:59:57 0° 3° (N) 3,331 5.5 -9.6°
Reaches altitude 10° 13:02:26 10° 355° (N) 2,409 4.7 -9.1°
Maximum altitude 13:07:17 37° 290° (WNW) 1,269 2.8 -8.2°
Drops below altitude 10° 13:12:11 10° 225° (SW) 2,429 4.1 -7.2°
Sets 13:14:41 0° 217° (SW) 3,362 4.9 -6.7°
